Location: Newark
(12.6500°N, 8.0000°W)
Time: 21:58:17
(UTC+00:00)

N. Korean satellite - Visible Passes

Search period start: 25 March 2019 00:00
Search period end: 04 April 2019 00:00
Orbit: 456 x 510 km, 97.2° (Epoch: 24 March)

Date Brightness Start Highest point End Pass type
(mag) Time Alt. Az. Time Alt. Az. Time Alt. Az.
27 Mar 9.3 05:52:43 10° NE 05:55:42 24° E 05:58:44 10° SSE visible
31 Mar 9.7 05:47:05 10° NE 05:49:49 20° E 05:52:35 10° SSE visible
03 Apr 8.3 06:05:13 10° NNE 06:08:42 40° E 06:12:12 10° S visible
